radka79 completed 60 games.

radka79 defeated blokcube 33 to 31 at 2012-11-11 13:42:57
radka79 defeated bankerssuck 27 to 20 at 2012-11-11 13:33:36
Dearnuts4 defeated radka79 47 to 27 at 2012-11-11 06:53:37
radka79 defeated hjalmar81 51 to 37 at 2012-11-11 04:26:03
hjalmar81 defeated radka79 41 to 40 at 2012-11-11 04:11:26
hjalmar81 defeated radka79 42 to 24 at 2012-11-11 04:03:45
wake4law_cane4life defeated radka79 49 to 24 at 2012-09-25 20:27:26
radka79 defeated -JIB JAB- 33 to 27 at 2012-09-25 20:16:04
MrNotSoN1ce defeated radka79 42 to 39 at 2012-09-08 19:08:38
radka79 defeated The Great Dalmuti 51 to 29 at 2012-09-08 18:58:24
hanscb75 defeated radka79 39 to 21 at 2012-09-01 14:37:37
radka79 defeated nsnks 33 to 27 at 2012-08-09 18:40:49
flo defeated radka79 36 to 22 at 2012-08-06 14:04:54
radka79 defeated munchercorpse 43 to 21 at 2012-08-02 17:28:24
pr0metheus23 defeated radka79 27 to 26 at 2012-07-31 16:47:27
dominionlover defeated radka79 33 to 27 at 2012-07-31 16:37:43
radka79 defeated andrevock 45 to 23 at 2012-07-29 15:13:20
radka79 defeated Amista79 33 to 27 at 2012-07-23 18:25:24
radka79 defeated fetty05 34 to 29 at 2012-07-23 18:16:12
chac-han defeated radka79 26 to 25 at 2012-07-22 07:42:54
radka79 defeated sbrissaud 30 to 27 at 2012-07-21 17:10:40
billcbrown42 defeated radka79 39 to 24 at 2012-07-21 16:48:58
radka79 defeated hytonen_77 74 to 41 at 2012-06-26 14:47:51
radka79 defeated AnniFlinto 54 to 23 at 2012-06-22 14:12:17
pepck defeated radka79 39 to 24 at 2012-05-22 23:03:49
JxM83 defeated radka79 41 to 34 at 2012-05-15 17:13:10
LastFootnote defeated radka79 31 to 16 at 2012-05-15 16:55:49
radka79 defeated Josephus777 64 to 56 at 2012-05-15 15:52:50
{Jostein} defeated radka79 25 to 23 at 2012-05-15 15:23:58
TempestMaker defeated radka79 30 to 27 at 2012-05-14 15:20:57
radka79 defeated icbinb 33 to 24 at 2012-05-14 15:14:31
kdres91 and radka79 tied at 2012-05-14 15:03:27
SerreosKotsidas defeated radka79 31 to 27 at 2012-05-14 14:51:25
FreeGravy defeated radka79 35 to 29 at 2012-05-13 15:36:09
Super Sonic defeated radka79 38 to 22 at 2012-05-13 03:01:01
radka79 defeated lasisita 40 to 33 at 2012-05-13 02:37:27
???? defeated radka79 42 to 35 at 2012-05-12 05:33:11
edwardwg defeated radka79 45 to 27 at 2012-05-09 17:17:38
blokcube defeated radka79 36 to 17 at 2012-04-02 16:49:06
radka79 defeated seldrak 39 to 32 at 2012-03-21 16:50:13
radka79 defeated dewalin 45 to 28 at 2012-03-19 16:15:06
radka79 defeated -=$Talamos$=- 33 to 24 at 2012-03-11 06:32:56
SteveWall defeated radka79 41 to 37 at 2012-03-10 17:29:48
Porter Timms defeated radka79 33 to 21 at 2012-03-10 17:02:26
radka79 defeated Kentarino 45 to 18 at 2012-03-10 16:27:31
?????' defeated radka79 33 to 24 at 2012-03-10 03:10:36
radka79 defeated ?????' 54 to 21 at 2012-03-10 02:59:36
nohairdo defeated radka79 46 to 39 at 2012-03-10 02:42:26
radka79 defeated LastFootnote 46 to 34 at 2012-03-09 15:42:08
ORIK4KING defeated radka79 57 to 34 at 2012-03-08 18:46:41
khennesRN defeated radka79 42 to 33 at 2012-03-08 17:59:52
mclai 10 defeated radka79 47 to 37 at 2012-03-08 13:58:54
chessqueen 65 defeated radka79 38 to 30 at 2012-03-08 13:40:04
radka79 defeated simonhoechst 47 to 32 at 2012-03-07 16:25:50
mecki61 defeated radka79 32 to 27 at 2012-03-07 16:10:16
radka79 defeated cliclignote 59 to 52 at 2012-03-05 18:42:33
radka79 defeated DiscipleEX 48 to 47 at 2012-03-05 18:22:21
radka79 defeated CarstenVA 46 to 33 at 2012-03-05 18:01:18
radka79 defeated Dahbassplaya 51 to 35 at 2012-03-05 17:47:29
radka79 defeated Dahbassplaya 47 to 39 at 2012-03-05 17:26:03